Location: Wells
(51.2093°N, 2.6446°W)
Time: 13:34:28
(UTC+01:00)

CUBEBUG 2 - Pass Details

Date: 11 March 2026
Orbit: 548 x 627 km, 97.9° (Epoch: 14 April)

Event Time Altitude Azimuth Distance (km) Brightness Sun altitude
Rises 03:02:00 0° 11° (N) 2,870 ? -31.8°
Reaches altitude 10° 03:04:11 10° 8° (N) 1,973 ? -31.6°
Enters shadow 03:05:40 21° 3° (N) 1,386 ? -31.4°
